This demonstration page uses our WeatherBlox Daily Observations layout. Learn more.

40.92945, -100.16068

Hourly Observations for May 31, 2018

Temp ( °F °C ) Dew Point ( °F °C ) Humidity (%) Winds ( mph kmh ) Pressure ( in mb ) Visibility ( mi km ) Precip ( " mm )
12:15 am 00:15 Clear 64 18 60 15.3 84 84 Calm 29.68 1005 10 16.0934 0 0
12:35 am 00:35 Clear 65 18.1 60 15.4 84 84 Calm 29.68 1005 10 16.0934 0 0
12:55 am 00:55 Clear 64 17.8 60 15.3 85 85 Calm 29.68 1005 10 16.0934 0 0
1:15 am 01:15 Clear 64 17.7 60 15.6 88 88 Calm 29.65 1004 10 16.0934 0 0
1:35 am 01:35 Clear 62 16.7 59 15.1 90 90 Calm 29.68 1005 10 16.0934 0 0
1:55 am 01:55 Clear 62 16.7 60 15.3 92 92 Calm 29.68 1005 10 16.0934 0 0
2:15 am 02:15 Clear 61 16 59 14.9 93 93 Calm 29.68 1005 10 16.0934 0 0
2:35 am 02:35 Clear 60 15.8 58 14.5 92 92 Calm 29.68 1005 10 16.0934 0 0
2:55 am 02:55 Clear 60 15.8 57 14 89 89 Calm 29.68 1005 10 16.0934 0 0
3:15 am 03:15 Mostly Cloudy 62 16.5 58 14.5 88 88 Calm 29.68 1005 10 16.0934 0 0
3:35 am 03:35 Partly Cloudy 61 15.9 57 13.9 88 88 WNW 3 6 29.68 1005 10 16.0934 0 0
3:55 am 03:55 Clear 62 16.5 57 13.9 85 85 NW 3 6 29.68 1005 10 16.0934 0 0
4:15 am 04:15 Clear 59 15.1 56 13.6 91 91 NW 5 7 29.71 1006 10 16.0934 0 0
4:35 am 04:35 Clear 60 15.3 58 14.3 94 94 Calm 29.71 1006 10 16.0934 0 0
4:55 am 04:55 Clear 59 14.8 56 13.5 92 92 WNW 6 9 29.71 1006 10 16.0934 0 0
5:15 am 05:15 Clear 58 14.6 56 13.6 94 94 WNW 6 9 29.71 1006 10 16.0934 0 0
5:35 am 05:35 Clear 60 15.4 58 14.5 94 94 W 5 7 29.74 1007 10 16.0934 0 0
5:55 am 05:55 Clear 60 15.3 57 14.1 93 93 W 3 6 29.71 1006 10 16.0934 0 0
6:15 am 06:15 Sunny 59 15.2 57 13.8 91 91 WNW 7 11 29.71 1006 10 16.0934 0 0
6:35 am 06:35 Sunny 60 15.5 57 14 91 91 W 8 13 29.74 1007 10 16.0934 0 0
6:55 am 06:55 Sunny 60 15.3 57 13.7 90 90 W 7 11 29.74 1007 10 16.0934 0 0
7:15 am 07:15 Sunny 61 16.1 58 14.3 89 89 W 8 13 29.74 1007 10 16.0934 0 0
7:35 am 07:35 Sunny 63 17.2 59 15 87 87 W 8 13 29.77 1008 10 16.0934 0 0
7:55 am 07:55 Sunny 65 18.6 60 15.6 83 83 W 7 11 29.74 1007 10 16.0934 0 0
8:15 am 08:15 Sunny 68 19.9 61 16.1 79 79 WNW 3 6 29.74 1007 10 16.0934 0 0
8:35 am 08:35 Sunny 70 21 62 16.4 75 75 Calm 29.74 1007 10 16.0934 0 0
8:55 am 08:55 Sunny 71 21.7 61 16.1 71 71 Calm 29.71 1006 10 16.0934 0 0
9:15 am 09:15 Sunny 73 22.6 61 16.3 68 68 SSW 5 7 29.71 1006 10 16.0934 0 0
9:35 am 09:35 Sunny 74 23.2 60 15.7 63 63 WSW 6 9 29.71 1006 10 16.0934 0 0
9:55 am 09:55 Sunny 74 23.5 62 16.6 65 65 SSW 9 15 29.74 1007 10 16.0934 0 0
10:15 am 10:15 Sunny 75 23.8 61 16.2 63 63 SSW 9 15 29.74 1007 10 16.0934 0 0
10:35 am 10:35 Sunny 75 24.1 62 16.5 63 63 SSW 8 13 29.74 1007 10 16.0934 0 0
10:55 am 10:55 Sunny 76 24.5 60 15.5 57 57 SW 9 15 29.74 1007 10 16.0934 0 0
11:15 am 11:15 Sunny 77 25 61 15.9 57 57 SSW 10 17 29.71 1006 10 16.0934 0 0
11:35 am 11:35 Sunny 78 25.7 62 16.8 58 58 S 12 19 29.71 1006 10 16.0934 0 0
11:55 am 11:55 Sunny 79 26 62 16.8 57 57 SW 10 17 29.71 1006 10 16.0934 0 0
12:15 pm 12:15 Sunny 80 26.5 64 17.6 58 58 SSW 8 13 29.71 1006 10 16.0934 0 0
12:35 pm 12:35 Sunny 80 26.5 63 17.3 57 57 SW 10 17 29.71 1006 10 16.0934 0 0
12:55 pm 12:55 Sunny 81 27.1 65 18.1 58 58 SW 10 17 29.68 1005 10 16.0934 0 0
1:15 pm 13:15 Sunny 81 27 64 17.7 57 57 SW 10 17 29.68 1005 10 16.0934 0 0
1:35 pm 13:35 Sunny 82 27.6 65 18.4 57 57 SW 12 19 29.68 1005 10 16.0934 0 0
1:55 pm 13:55 Sunny 82 28 65 18.5 56 56 SSW 12 19 29.68 1005 10 16.0934 0 0
2:15 pm 14:15 Sunny 83 28.2 65 18.2 55 55 SSW 9 15 29.68 1005 10 16.0934 0 0
2:35 pm 14:35 Sunny 83 28.5 65 18.2 54 54 SSW 7 11 29.68 1005 10 16.0934 0 0
2:55 pm 14:55 Sunny 84 28.7 63 17.4 50 50 SW 7 11 29.65 1004 10 16.0934 0 0
3:15 pm 15:15 Sunny 85 29.3 61 16.1 45 45 SW 8 13 29.65 1004 10 16.0934 0 0
3:35 pm 15:35 Sunny 85 29.5 63 17.2 48 48 SSW 7 11 29.65 1004 10 16.0934 0 0
3:55 pm 15:55 Sunny 86 29.8 63 17.1 46 46 SW 12 19 29.65 1004 10 16.0934 0 0
4:15 pm 16:15 Sunny 86 30 61 16.1 43 43 S 8 13 29.65 1004 10 16.0934 0 0
4:35 pm 16:35 Sunny 86 30 63 17.3 46 46 S 7 11 29.65 1004 10 16.0934 0 0
4:55 pm 16:55 Sunny 86 30 62 16.5 44 44 S 8 13 29.62 1003 10 16.0934 0 0
5:15 pm 17:15 Sunny 86 30 58 14.4 39 39 WSW 5 7 29.62 1003 10 16.0934 0 0
5:35 pm 17:35 Sunny 87 30.3 60 15.4 40 40 SW 7 11 29.62 1003 10 16.0934 0 0
5:55 pm 17:55 Sunny 87 30.6 57 14 36 36 SSW 7 11 29.62 1003 10 16.0934 0 0
6:15 pm 18:15 Sunny 85 29.6 59 15 41 41 SSE 7 11 29.62 1003 10 16.0934 0 0
6:35 pm 18:35 Sunny 85 29.6 60 15.6 43 43 SSE 8 13 29.62 1003 10 16.0934 0 0
7:15 pm 19:15 Sunny 84 28.8 62 16.7 48 48 S 6 9 29.62 1003 10 16.0934 0 0
7:35 pm 19:35 Sunny 83 28.2 64 17.6 53 53 S 6 9 29.65 1004 10 16.0934 0 0
7:55 pm 19:55 Sunny 81 27.3 65 18.1 57 57 S 6 9 29.65 1004 10 16.0934 0 0
8:15 pm 20:15 Sunny 80 26.5 63 17.3 57 57 S 7 11 29.65 1004 10 16.0934 0 0
8:35 pm 20:35 Sunny 78 25.5 62 16.5 58 58 S 7 11 29.65 1004 10 16.0934 0 0
8:55 pm 20:55 Sunny 76 24.3 62 16.6 62 62 SSE 6 9 29.68 1005 10 16.0934 0 0
9:15 pm 21:15 Clear 75 23.7 62 16.5 64 64 SSE 8 13 29.68 1005 10 16.0934 0 0
9:35 pm 21:35 Clear 75 24 62 16.7 64 64 SSE 9 15 29.71 1006 10 16.0934 0 0
9:55 pm 21:55 Clear 75 23.8 64 17.5 68 68 SSE 9 15 29.71 1006 10 16.0934 0 0
10:15 pm 22:15 Clear 74 23.6 64 17.7 70 70 SSE 10 17 29.71 1006 10 16.0934 0 0
10:35 pm 22:35 Clear 74 23.2 64 17.6 71 71 SSE 8 13 29.71 1006 10 16.0934 0 0
10:55 pm 22:55 Clear 73 22.8 64 17.5 72 72 SSE 8 13 29.71 1006 10 16.0934 0 0
11:15 pm 23:15 Clear 73 22.6 64 17.5 73 73 SSE 8 13 29.71 1006 10 16.0934 0 0
11:35 pm 23:35 Clear 72 22 63 17.2 74 74 SSE 8 13 29.71 1006 10 16.0934 0 0
11:55 pm 23:55 Clear 71 21.9 63 17.2 75 75 SSE 8 13 29.71 1006 10 16.0934 0 0

Powered by AerisWeather